"Period start","avg(HW err(1)/warn(2) (#))","avg(Visibility (m))","avg(Weather code (#))","avg(Precip intensity (mm/h))","min(HW err(1)/warn(2) (#))","max(HW err(1)/warn(2) (#))","std(HW err(1)/warn(2) (#))","med(HW err(1)/warn(2) (#))","min(Visibility (m))","max(Visibility (m))","std(Visibility (m))","med(Visibility (m))","min(Weather code (#))","max(Weather code (#))","std(Weather code (#))","med(Weather code (#))","min(Precip intensity (mm/h))","max(Precip intensity (mm/h))","std(Precip intensity (mm/h))","med(Precip intensity (mm/h))"
2016-09-19 00:00:00,2,45018,0,0.00,2,2,0,2,28482,50000,6073,46304,0,0,0,0,0.00,0.00,0.00,0.00
2016-09-19 00:10:00,2,47523,0,0.00,2,2,0,2,38804,50000,3576,49293,0,0,0,0,0.00,0.00,0.00,0.00
2016-09-19 00:20:00,2,47198,0,0.00,2,2,0,2,40845,50000,3219,48616,0,0,0,0,0.00,0.00,0.00,0.00
2016-09-19 00:30:00,2,49373,0,0.00,2,2,0,2,46369,50000,1274,50000,0,0,0,0,0.00,0.00,0.00,0.00
2016-09-19 00:40:00,2,48006,0,0.00,2,2,0,2,38862,50000,3802,50000,0,0,0,0,0.00,0.00,0.00,0.00
2016-09-19 00:50:00,2,49053,0,0.00,2,2,0,2,43856,50000,1996,50000,0,0,0,0,0.00,0.00,0.00,0.00
2016-09-19 01:00:00,2,49014,0,0.00,2,2,0,2,44677,50000,1782,50000,0,0,0,0,0.00,0.00,0.00,0.00
2016-09-19 01:10:00,0,49066,0,0.00,0,0,0,0,44927,50000,1728,50000,0,0,0,0,0.00,0.00,0.00,0.00
2016-09-19 01:20:00,0,49820,0,0.00,0,2,1,0,48507,50000,447,50000,0,0,0,0,0.00,0.00,0.00,0.00
2016-09-19 01:30:00,1,49369,0,0.00,0,2,1,2,44955,50000,1489,50000,0,0,0,0,0.00,0.00,0.00,0.00
2016-09-19 01:40:00,2,48471,0,0.00,2,2,0,2,36643,50000,3985,50000,0,0,0,0,0.00,0.00,0.00,0.00
2016-09-19 01:50:00,2,40890,0,0.00,2,2,0,2,29723,50000,8269,39752,0,0,0,0,0.00,0.00,0.00,0.00
2016-09-19 02:00:00,2,48255,0,0.00,2,2,0,2,43998,50000,2240,49774,0,0,0,0,0.00,0.00,0.00,0.00
2016-09-19 02:10:00,2,49214,0,0.00,2,2,0,2,44708,50000,1621,50000,0,0,0,0,0.00,0.00,0.00,0.00
2016-09-19 02:20:00,2,46931,0,0.00,2,2,0,2,40129,50000,2854,47282,0,0,0,0,0.00,0.00,0.00,0.00
2016-09-19 02:30:00,2,46420,0,0.00,2,2,0,2,38175,50000,4636,49484,0,0,0,0,0.00,0.00,0.00,0.00
2016-09-19 02:40:00,2,48669,0,0.00,2,2,0,2,45022,50000,1668,49416,0,0,0,0,0.00,0.00,0.00,0.00
2016-09-19 02:50:00,2,47394,0,0.00,2,2,0,2,42332,50000,2616,47728,0,0,0,0,0.00,0.00,0.00,0.00
2016-09-19 03:00:00,2,36690,0,0.00,2,2,0,2,32151,43169,3289,36122,0,0,0,0,0.00,0.00,0.00,0.00
2016-09-19 03:10:00,2,47595,0,0.00,2,2,0,2,36217,50000,4873,50000,0,0,0,0,0.00,0.00,0.00,0.00
2016-09-19 03:20:00,2,49550,0,0.00,0,2,1,2,46885,50000,908,49944,0,0,0,0,0.00,0.00,0.00,0.00
2016-09-19 03:30:00,0,49420,0,0.00,0,2,1,0,47141,50000,971,50000,0,0,0,0,0.00,0.00,0.00,0.00
2016-09-19 03:40:00,2,49701,0,0.00,2,2,0,2,48194,50000,565,50000,0,0,0,0,0.00,0.00,0.00,0.00
2016-09-19 03:50:00,2,49606,0,0.00,2,2,0,2,47524,50000,820,50000,0,0,0,0,0.00,0.00,0.00,0.00
2016-09-19 04:00:00,2,49939,0,0.00,0,2,1,2,49386,50000,184,50000,0,0,0,0,0.00,0.00,0.00,0.00
2016-09-19 04:10:00,0,49223,0,0.00,0,0,0,0,46381,50000,1207,50000,0,0,0,0,0.00,0.00,0.00,0.00
2016-09-19 04:20:00,1,49846,0,0.00,0,2,1,2,48464,50000,461,50000,0,0,0,0,0.00,0.00,0.00,0.00
2016-09-19 04:30:00,1,49426,0,0.00,0,2,1,0,46054,50000,1245,50000,0,0,0,0,0.00,0.00,0.00,0.00
2016-09-19 04:40:00,1,50000,0,0.00,0,2,1,0,50000,50000,0,50000,0,0,0,0,0.00,0.00,0.00,0.00
2016-09-19 04:50:00,2,49587,0,0.00,2,2,0,2,46776,50000,951,50000,0,0,0,0,0.00,0.00,0.00,0.00
2016-09-19 05:00:00,1,49392,0,0.00,0,2,1,2,46225,50000,1260,50000,0,0,0,0,0.00,0.00,0.00,0.00
2016-09-19 05:10:00,2,49512,0,0.00,2,2,0,2,46617,50000,1015,50000,0,0,0,0,0.00,0.00,0.00,0.00
2016-09-19 05:20:00,0,49899,0,0.00,0,0,0,0,49335,50000,215,50000,0,0,0,0,0.00,0.00,0.00,0.00
2016-09-19 05:30:00,0,50000,0,0.00,0,0,0,0,50000,50000,0,50000,0,0,0,0,0.00,0.00,0.00,0.00
2016-09-19 05:40:00,0,49679,0,0.00,0,0,0,0,46815,50000,955,50000,0,0,0,0,0.00,0.00,0.00,0.00
2016-09-19 05:50:00,0,49808,0,0.00,0,0,0,0,48080,50000,576,50000,0,0,0,0,0.00,0.00,0.00,0.00
2016-09-19 06:00:00,0,49898,0,0.00,0,2,1,0,48987,50000,304,50000,0,0,0,0,0.00,0.00,0.00,0.00
2016-09-19 06:10:00,2,49833,0,0.00,0,2,1,2,48329,50000,501,50000,0,0,0,0,0.00,0.00,0.00,0.00
2016-09-19 06:20:00,0,49842,0,0.00,0,0,0,0,49173,50000,317,50000,0,0,0,0,0.00,0.00,0.00,0.00
2016-09-19 06:30:00,0,49838,0,0.00,0,0,0,0,48385,50000,484,50000,0,0,0,0,0.00,0.00,0.00,0.00
2016-09-19 06:40:00,1,49041,0,0.00,0,2,1,2,43845,50000,2012,50000,0,0,0,0,0.00,0.00,0.00,0.00
2016-09-19 06:50:00,2,50000,0,0.00,2,2,0,2,50000,50000,0,50000,0,0,0,0,0.00,0.00,0.00,0.00
2016-09-19 07:00:00,2,50000,0,0.00,2,2,0,2,50000,50000,0,50000,0,0,0,0,0.00,0.00,0.00,0.00
2016-09-19 07:10:00,2,50000,0,0.00,2,2,0,2,50000,50000,0,50000,0,0,0,0,0.00,0.00,0.00,0.00
2016-09-19 07:20:00,2,49641,0,0.00,2,2,0,2,46413,50000,1076,50000,0,0,0,0,0.00,0.00,0.00,0.00
2016-09-19 07:30:00,2,49852,0,0.00,2,2,0,2,48519,50000,444,50000,0,0,0,0,0.00,0.00,0.00,0.00
2016-09-19 07:40:00,2,49710,0,0.00,2,2,0,2,47244,50000,823,50000,0,0,0,0,0.00,0.00,0.00,0.00
2016-09-19 07:50:00,2,50000,0,0.00,0,2,1,2,50000,50000,0,50000,0,0,0,0,0.00,0.00,0.00,0.00
2016-09-19 08:00:00,1,49694,0,0.00,0,2,1,2,46938,50000,919,50000,0,0,0,0,0.00,0.00,0.00,0.00
2016-09-19 08:10:00,2,49941,0,0.00,0,2,1,2,49512,50000,146,50000,0,0,0,0,0.00,0.00,0.00,0.00
2016-09-19 08:20:00,2,50000,0,0.00,2,2,0,2,50000,50000,0,50000,0,0,0,0,0.00,0.00,0.00,0.00
2016-09-19 08:30:00,2,49240,0,0.00,2,2,0,2,46391,50000,1385,50000,0,0,0,0,0.00,0.00,0.00,0.00
2016-09-19 08:40:00,2,50000,0,0.00,2,2,0,2,50000,50000,0,50000,0,0,0,0,0.00,0.00,0.00,0.00
2016-09-19 08:50:00,2,50000,0,0.00,2,2,0,2,50000,50000,0,50000,0,0,0,0,0.00,0.00,0.00,0.00
2016-09-19 09:00:00,2,49876,0,0.00,2,2,0,2,48758,50000,373,50000,0,0,0,0,0.00,0.00,0.00,0.00
2016-09-19 09:10:00,2,50000,0,0.00,2,2,0,2,50000,50000,0,50000,0,0,0,0,0.00,0.00,0.00,0.00
2016-09-19 09:20:00,2,50000,0,0.00,2,2,0,2,50000,50000,0,50000,0,0,0,0,0.00,0.00,0.00,0.00
2016-09-19 09:30:00,2,50000,0,0.00,2,2,0,2,50000,50000,0,50000,0,0,0,0,0.00,0.00,0.00,0.00
2016-09-19 09:40:00,2,50000,0,0.00,2,2,0,2,50000,50000,0,50000,0,0,0,0,0.00,0.00,0.00,0.00
2016-09-19 09:50:00,2,50000,0,0.00,2,2,0,2,50000,50000,0,50000,0,0,0,0,0.00,0.00,0.00,0.00
2016-09-19 10:00:00,2,50000,0,0.00,2,2,0,2,50000,50000,0,50000,0,0,0,0,0.00,0.00,0.00,0.00
2016-09-19 10:10:00,2,50000,0,0.00,2,2,0,2,50000,50000,0,50000,0,0,0,0,0.00,0.00,0.00,0.00
2016-09-19 10:20:00,2,49388,0,0.00,2,2,0,2,46498,50000,1114,50000,0,0,0,0,0.00,0.00,0.00,0.00
2016-09-19 10:30:00,2,50000,0,0.00,2,2,0,2,50000,50000,0,50000,0,0,0,0,0.00,0.00,0.00,0.00
2016-09-19 10:40:00,2,41419,0,0.00,2,2,0,2,29249,50000,7064,41682,0,0,0,0,0.00,0.00,0.00,0.00
2016-09-19 10:50:00,2,32361,0,0.00,2,2,0,2,18769,46822,10164,33635,0,0,0,0,0.00,0.00,0.00,0.00
2016-09-19 11:00:00,2,23991,0,0.00,2,2,0,2,18512,29370,3504,24888,0,0,0,0,0.00,0.00,0.00,0.00
2016-09-19 11:10:00,2,35516,0,0.00,2,2,0,2,24257,42634,6428,36901,0,0,0,0,0.00,0.00,0.00,0.00
2016-09-19 11:20:00,2,36147,0,0.00,2,2,0,2,30983,46098,4371,35314,0,0,0,0,0.00,0.00,0.00,0.00
2016-09-19 11:30:00,2,27696,0,0.00,2,2,0,2,20583,36079,5613,25926,0,0,0,0,0.00,0.00,0.00,0.00
2016-09-19 11:40:00,2,30047,0,0.00,2,2,0,2,18995,37475,6240,31512,0,0,0,0,0.00,0.00,0.00,0.00
2016-09-19 11:50:00,2,12495,0,0.00,2,2,0,2,9376,18700,2832,11044,0,0,0,0,0.00,0.00,0.00,0.00
2016-09-19 12:00:00,2,11177,0,0.00,2,2,0,2,5776,15654,2817,11336,0,0,0,0,0.00,0.00,0.00,0.00
2016-09-19 12:10:00,2,15957,0,0.00,2,2,0,2,11895,19904,2611,16546,0,0,0,0,0.00,0.00,0.00,0.00
2016-09-19 12:20:00,2,13185,0,0.00,2,2,0,2,9149,18172,2419,13054,0,0,0,0,0.00,0.00,0.00,0.00
2016-09-19 12:30:00,2,5028,7,0.00,2,2,0,2,3100,6509,949,5166,0,10,5,10,0.00,0.00,0.00,0.00
2016-09-19 12:40:00,1,9704,10,0.00,0,2,1,0,7370,12799,1801,9122,10,10,0,10,0.00,0.00,0.00,0.00
2016-09-19 12:50:00,0,9728,10,0.00,0,0,0,0,6921,11924,1711,9512,10,10,0,10,0.00,0.00,0.00,0.00
2016-09-19 13:00:00,0,13178,6,0.00,0,0,0,0,10017,18383,2171,12687,0,10,5,10,0.00,0.00,0.00,0.00
2016-09-19 13:10:00,0,25448,0,0.00,0,0,0,0,15243,36315,7297,24900,0,0,0,0,0.00,0.00,0.00,0.00
2016-09-19 13:20:00,0,11697,2,0.00,0,0,0,0,4482,23106,7792,6138,0,10,4,0,0.00,0.00,0.00,0.00
2016-09-19 13:30:00,0,8963,10,0.00,0,0,0,0,3409,15216,3953,9276,10,10,0,10,0.00,0.00,0.00,0.00
2016-09-19 13:40:00,0,6276,10,0.00,0,0,0,0,3098,10528,2183,5764,10,10,0,10,0.00,0.00,0.00,0.00
2016-09-19 13:50:00,0,8108,10,0.00,0,0,0,0,3749,11672,2198,8663,10,10,0,10,0.00,0.00,0.00,0.00
2016-09-19 14:00:00,0,8121,10,0.00,0,0,0,0,3453,10067,1772,8474,10,10,0,10,0.00,0.00,0.00,0.00
2016-09-19 14:10:00,0,14824,10,0.00,0,0,0,0,7884,30048,7573,10972,10,10,0,10,0.00,0.00,0.00,0.00
2016-09-19 14:20:00,0,20589,0,0.00,0,0,0,0,8757,36863,9558,15832,0,0,0,0,0.00,0.00,0.00,0.00
2016-09-19 14:30:00,0,37005,0,0.00,0,0,0,0,27600,45091,5514,37079,0,0,0,0,0.00,0.00,0.00,0.00
2016-09-19 14:40:00,2,44275,0,0.00,0,2,1,2,34118,50000,5076,44270,0,0,0,0,0.00,0.00,0.00,0.00
2016-09-19 14:50:00,2,49836,0,0.00,2,2,0,2,48356,50000,493,50000,0,0,0,0,0.00,0.00,0.00,0.00
2016-09-19 15:00:00,2,47848,0,0.00,2,2,0,2,33252,50000,4949,50000,0,0,0,0,0.00,0.00,0.00,0.00
2016-09-19 15:10:00,2,34340,0,0.00,2,2,0,2,19711,48490,9298,31204,0,0,0,0,0.00,0.00,0.00,0.00
2016-09-19 15:20:00,2,29456,0,0.00,2,2,0,2,20857,37873,4577,28961,0,0,0,0,0.00,0.00,0.00,0.00
2016-09-19 15:30:00,2,45696,0,0.00,2,2,0,2,33452,50000,4787,45920,0,0,0,0,0.00,0.00,0.00,0.00
2016-09-19 15:40:00,2,47260,0,0.00,2,2,0,2,40687,50000,2851,48221,0,0,0,0,0.00,0.00,0.00,0.00
2016-09-19 15:50:00,2,47155,0,0.00,2,2,0,2,43960,50000,1815,47358,0,0,0,0,0.00,0.00,0.00,0.00
2016-09-19 16:00:00,2,46084,0,0.00,2,2,0,2,41849,50000,2776,46112,0,0,0,0,0.00,0.00,0.00,0.00
2016-09-19 16:10:00,2,48859,0,0.00,2,2,0,2,45599,50000,1290,48884,0,0,0,0,0.00,0.00,0.00,0.00
2016-09-19 16:20:00,2,43677,0,0.00,2,2,0,2,39180,50000,3754,42496,0,0,0,0,0.00,0.00,0.00,0.00
2016-09-19 16:30:00,2,50000,0,0.00,2,2,0,2,50000,50000,0,50000,0,0,0,0,0.00,0.00,0.00,0.00
2016-09-19 16:40:00,2,42940,0,0.00,2,2,0,2,21317,50000,10716,48537,0,0,0,0,0.00,0.00,0.00,0.00
2016-09-19 16:50:00,2,11386,0,0.00,2,2,0,2,7428,23481,5282,9001,0,0,0,0,0.00,0.00,0.00,0.00
2016-09-19 17:00:00,2,8185,5,0.00,2,2,0,2,1768,26029,8093,4002,0,10,5,5,0.00,0.00,0.00,0.00
2016-09-19 17:10:00,2,8696,10,0.00,2,2,0,2,2326,36515,10461,3645,10,10,0,10,0.00,0.00,0.00,0.00
2016-09-19 17:20:00,2,49357,7,0.00,2,2,0,2,46779,50000,1068,50000,0,10,5,10,0.00,0.00,0.00,0.00
2016-09-19 17:30:00,2,49939,0,0.00,2,2,0,2,49386,50000,184,50000,0,0,0,0,0.00,0.00,0.00,0.00
2016-09-19 17:40:00,2,50000,0,0.00,2,2,0,2,50000,50000,0,50000,0,0,0,0,0.00,0.00,0.00,0.00
2016-09-19 17:50:00,2,50000,0,0.00,2,2,0,2,50000,50000,0,50000,0,0,0,0,0.00,0.00,0.00,0.00
2016-09-19 18:00:00,2,50000,0,0.00,2,2,0,2,50000,50000,0,50000,0,0,0,0,0.00,0.00,0.00,0.00
2016-09-19 18:10:00,2,50000,0,0.00,2,2,0,2,50000,50000,0,50000,0,0,0,0,0.00,0.00,0.00,0.00
2016-09-19 18:20:00,2,50000,0,0.00,2,2,0,2,50000,50000,0,50000,0,0,0,0,0.00,0.00,0.00,0.00
2016-09-19 18:30:00,2,50000,0,0.00,2,2,0,2,50000,50000,0,50000,0,0,0,0,0.00,0.00,0.00,0.00
2016-09-19 18:40:00,2,50000,0,0.00,2,2,0,2,50000,50000,0,50000,0,0,0,0,0.00,0.00,0.00,0.00
2016-09-19 18:50:00,2,50000,0,0.00,2,2,0,2,50000,50000,0,50000,0,0,0,0,0.00,0.00,0.00,0.00
2016-09-19 19:00:00,2,44620,0,0.00,2,2,0,2,32126,50000,6724,49662,0,0,0,0,0.00,0.00,0.00,0.00
2016-09-19 19:10:00,2,24068,0,0.00,2,2,0,2,11186,50000,15266,15375,0,0,0,0,0.00,0.00,0.00,0.00
2016-09-19 19:20:00,2,22379,0,0.00,2,2,0,2,13158,28533,4847,24298,0,0,0,0,0.00,0.00,0.00,0.00
2016-09-19 19:30:00,2,30414,0,0.00,2,2,0,2,19304,41162,7296,30327,0,0,0,0,0.00,0.00,0.00,0.00
2016-09-19 19:40:00,2,40917,0,0.00,2,2,0,2,24594,50000,8786,44314,0,0,0,0,0.00,0.00,0.00,0.00
2016-09-19 19:50:00,2,19405,0,0.00,2,2,0,2,12396,30146,5479,18280,0,0,0,0,0.00,0.00,0.00,0.00
2016-09-19 20:00:00,2,23078,0,0.00,2,2,0,2,17128,26798,3257,24150,0,0,0,0,0.00,0.00,0.00,0.00
2016-09-19 20:10:00,2,13540,0,0.00,2,2,0,2,9441,22664,3799,12584,0,0,0,0,0.00,0.00,0.00,0.00
2016-09-19 20:20:00,2,19758,0,0.00,2,2,0,2,9092,39948,9886,17142,0,0,0,0,0.00,0.00,0.00,0.00
2016-09-19 20:30:00,2,22746,0,0.00,2,2,0,2,15832,49064,10460,18262,0,0,0,0,0.00,0.00,0.00,0.00
2016-09-19 20:40:00,2,17671,0,0.00,2,2,0,2,9023,29350,6367,14716,0,0,0,0,0.00,0.00,0.00,0.00
2016-09-19 20:50:00,2,24076,0,0.00,2,2,0,2,7235,44193,11803,19450,0,0,0,0,0.00,0.00,0.00,0.00
2016-09-19 21:00:00,2,2364,8,0.00,2,2,0,2,1145,6598,1533,2063,0,10,4,10,0.00,0.00,0.00,0.00
2016-09-19 21:10:00,2,4600,10,0.00,2,2,0,2,3116,7742,1210,4160,10,10,0,10,0.00,0.00,0.00,0.00
2016-09-19 21:20:00,2,4682,10,0.00,2,2,0,2,3243,6754,1216,4344,10,10,0,10,0.00,0.00,0.00,0.00
2016-09-19 21:30:00,2,7701,10,0.00,2,2,0,2,5196,10453,1824,7526,10,10,0,10,0.00,0.00,0.00,0.00
2016-09-19 21:40:00,2,6170,10,0.00,2,2,0,2,4028,8932,1707,5850,10,10,0,10,0.00,0.00,0.00,0.00
2016-09-19 21:50:00,2,12075,2,0.00,2,2,0,2,6931,18901,3837,11367,0,10,4,0,0.00,0.00,0.00,0.00
2016-09-19 22:00:00,2,11454,0,0.00,2,2,0,2,5712,21325,4666,10736,0,0,0,0,0.00,0.00,0.00,0.00
2016-09-19 22:10:00,2,6287,10,0.00,2,2,0,2,3079,9501,2049,5618,10,10,0,10,0.00,0.00,0.00,0.00
2016-09-19 22:20:00,2,11830,6,0.00,2,2,0,2,5098,25012,6817,9662,0,10,5,10,0.00,0.00,0.00,0.00
2016-09-19 22:30:00,2,14945,0,0.00,2,2,0,2,3287,36669,10034,11272,0,0,0,0,0.00,0.00,0.00,0.00
2016-09-19 22:40:00,2,3894,10,0.00,2,2,0,2,1258,9193,2661,3165,10,10,0,10,0.00,0.00,0.00,0.00
2016-09-19 22:50:00,2,3018,10,0.00,2,2,0,2,1999,4341,846,2962,10,10,0,10,0.00,0.00,0.00,0.00
2016-09-19 23:00:00,2,4653,10,0.00,2,2,0,2,3370,6371,948,4408,10,10,0,10,0.00,0.00,0.00,0.00
2016-09-19 23:10:00,2,12663,10,0.00,2,2,0,2,5176,28235,7075,9534,10,10,0,10,0.00,0.00,0.00,0.00
2016-09-19 23:20:00,2,16590,4,0.00,2,2,0,2,8084,27641,7630,13599,0,10,5,0,0.00,0.00,0.00,0.00
2016-09-19 23:30:00,2,37265,0,0.00,2,2,0,2,9511,50000,11821,39368,0,0,0,0,0.00,0.00,0.00,0.00
2016-09-19 23:40:00,2,50000,0,0.00,2,2,0,2,50000,50000,0,50000,0,0,0,0,0.00,0.00,0.00,0.00
2016-09-19 23:50:00,2,49904,0,0.00,2,2,0,2,49044,50000,287,50000,0,0,0,0,0.00,0.00,0.00,0.00
